Weather History for Mount Pleasant, TX

Change the Weather History Date:

Wednesday, July 24, 2013

  Actual Average (KGGG) Record (KGGG)
Temperature  
Mean Temperature 79 °F 84 °F  
Max Temperature 86 °F 94 °F 106 °F (1943)
Min Temperature 72 °F 74 °F 60 °F (1947)
Degree Days  
Heating Degree Days 0 0  
Month to date heating degree days 0  
Since 1 June heating degree days 0  
Since 1 July heating degree days 0  
Cooling Degree Days 14 19  
Month to date cooling degree days 443  
Year to date cooling degree days 1261  
Since 1 June cooling degree days 882  
Growing Degree Days 29 (Base 50)    
Moisture  
Dew Point 68 °F    
Average Humidity 70    
Maximum Humidity 88    
Minimum Humidity 50    
Precipitation  
Precipitation 0.03 in 0.07 in 1.36 in (1902)
Month to date precipitation 2.40  
Year to date precipitation 27.14  
Snow  
Snow 0.00 in - - ()
Month to date snowfall  
Since 1 June snowfall  
Since 1 July snowfall  
Snow Depth -    
Sea Level Pressure  
Sea Level Pressure 29.96 in    
Wind  
Wind Speed 3 mph (NW)    
Max Wind Speed 18 mph    
Max Gust Speed 26 mph    
Visibility 10 miles    
Events      
T = Trace of Precipitation, MM = Missing Value Source: NWS Daily Summary

Daily Weather History Graph

Daily Weather History Graph

Search for Another Location

Airport:

Trip Planner

Search our weather history database for the weather conditions in past years. The results will help you decide how hot, cold, wet, or windy it might be!

Date:

Astronomy

Jul. 24, 2013 Rise Set
Actual Time 6:27 AM CDT 8:24 PM CDT
Civil Twilight 6:00 AM CDT 8:52 PM CDT
Nautical Twilight 5:26 AM CDT 9:25 PM CDT
Astronomical Twilight 4:51 AM CDT 10:00 PM CDT
Moon 9:43 PM CDT (7/24) 8:38 AM CDT (7/24)
Length of Visible Light 14h 51m
Length of Day
13h 56m
Waning Gibbous, 94% of the Moon is Illuminated
Jul 24
Waning Gibbous
Jul 29
Last Quarter
Aug 6
New
Aug 14
First Quarter
Aug 20
Full

Hourly Weather History & Observations

Time (CDT) Temp. Heat Index Dew Point Humidity Pressure Visibility Wind Dir Wind Speed Gust Speed Precip Events Conditions
12:15 AM 80.4 °F 83.6 °F 69.8 °F 70% 29.88 in 10.0 mi Calm Calm - N/A   Unknown
12:35 AM 80.1 °F 83.2 °F 70.0 °F 71% 29.90 in 10.0 mi Calm Calm - N/A   Unknown
12:55 AM 80.1 °F 83.2 °F 70.0 °F 71% 29.90 in 10.0 mi Calm Calm - N/A   Unknown
1:15 AM 79.5 °F - 70.0 °F 72% 29.90 in 10.0 mi Calm Calm - N/A   Unknown
1:35 AM 78.4 °F - 70.2 °F 76% 29.89 in 10.0 mi Calm Calm - N/A   Unknown
1:55 AM 79.2 °F - 69.4 °F 72% 29.91 in 10.0 mi Calm Calm - N/A   Unknown
2:15 AM 79.7 °F - 69.1 °F 70% 29.92 in 10.0 mi Calm Calm - N/A   Unknown
2:35 AM 79.7 °F - 68.9 °F 69% 29.92 in 10.0 mi Calm Calm - N/A   Unknown
2:55 AM 79.7 °F - 68.9 °F 69% 29.91 in 10.0 mi Calm Calm - N/A   Unknown
3:15 AM 78.6 °F - 69.1 °F 72% 29.91 in 10.0 mi Calm Calm - N/A   Unknown
3:35 AM 77.5 °F - 70.0 °F 77% 29.91 in 10.0 mi NNE 6.9 mph - N/A   Unknown
3:55 AM 77.0 °F - 70.3 °F 80% 29.93 in 10.0 mi NE 6.9 mph - N/A   Unknown
4:15 AM 76.6 °F - 70.3 °F 81% 29.94 in 10.0 mi NE 8.1 mph - N/A   Unknown
4:35 AM 76.5 °F - 70.0 °F 80% 29.98 in 10.0 mi NNE 15.0 mph 23.0 mph N/A   Unknown
4:55 AM 75.2 °F - 68.2 °F 79% 30.00 in 10.0 mi North 15.0 mph 21.9 mph N/A   Unknown
5:15 AM 74.8 °F - 67.1 °F 77% 30.00 in 10.0 mi NNE 10.4 mph 25.3 mph N/A   Unknown
5:35 AM 74.8 °F - 66.4 °F 75% 30.01 in 10.0 mi NE 8.1 mph - N/A   Unknown
5:55 AM 74.8 °F - 66.2 °F 74% 30.03 in 10.0 mi North 8.1 mph - N/A   Unknown
6:15 AM 73.6 °F - 67.1 °F 80% 30.03 in 5.0 mi NNE 6.9 mph - 0.02 in   Unknown
6:35 AM 72.5 °F - 67.6 °F 85% 30.02 in 10.0 mi Calm Calm - 0.02 in   Unknown
6:55 AM 72.5 °F - 67.8 °F 85% 30.02 in 10.0 mi Calm Calm - 0.02 in   Unknown
7:15 AM 72.0 °F - 67.8 °F 87% 29.98 in 10.0 mi Calm Calm - 0.01 in   Unknown
7:35 AM 72.1 °F - 68.2 °F 87% 29.98 in 10.0 mi Calm Calm - 0.01 in   Unknown
7:55 AM 72.5 °F - 68.7 °F 88% 29.96 in 10.0 mi Calm Calm - 0.01 in   Unknown
8:15 AM 72.7 °F - 68.9 °F 88% 29.97 in 10.0 mi Calm Calm - N/A   Unknown
8:35 AM 73.4 °F - 68.7 °F 85% 29.97 in 10.0 mi SSW 8.1 mph - N/A   Unknown
8:55 AM 73.4 °F - 68.5 °F 85% 29.97 in 10.0 mi SW 8.1 mph - N/A   Unknown
9:15 AM 73.9 °F - 69.1 °F 85% 29.96 in 10.0 mi SSW 6.9 mph - N/A   Unknown
9:35 AM 74.5 °F - 69.1 °F 83% 29.96 in 10.0 mi Calm Calm - N/A   Unknown
9:55 AM 75.4 °F - 69.8 °F 83% 29.96 in 10.0 mi SW 6.9 mph - N/A   Unknown
10:15 AM 76.8 °F - 70.2 °F 80% 29.96 in 10.0 mi SW 12.7 mph - N/A   Unknown
10:35 AM 77.5 °F - 70.0 °F 77% 29.97 in 10.0 mi WSW 17.3 mph 23.0 mph N/A   Unknown
10:55 AM 77.7 °F - 69.3 °F 75% 29.93 in 10.0 mi WSW 18.4 mph 25.3 mph N/A   Unknown
11:15 AM 77.0 °F - 68.0 °F 74% 29.91 in 10.0 mi WSW 18.4 mph 26.5 mph N/A   Unknown
11:35 AM 77.7 °F - 68.0 °F 72% 29.91 in 10.0 mi West 13.8 mph - N/A   Unknown
11:55 AM 78.8 °F - 67.8 °F 69% 29.91 in 10.0 mi WSW 13.8 mph 21.9 mph N/A   Unknown
12:15 PM 81.1 °F 84.0 °F 68.5 °F 65% 29.91 in 10.0 mi WSW 6.9 mph - N/A   Unknown
12:35 PM 81.1 °F 84.0 °F 68.4 °F 65% 29.96 in 10.0 mi Calm Calm - N/A   Unknown
12:55 PM 82.2 °F 84.9 °F 67.5 °F 61% 29.95 in 10.0 mi Calm Calm - N/A   Unknown
1:15 PM 82.2 °F 84.7 °F 67.3 °F 60% 29.96 in 10.0 mi Calm Calm - N/A   Unknown
1:35 PM 82.4 °F 85.2 °F 67.6 °F 61% 29.97 in 10.0 mi NNE 3.5 mph - N/A   Unknown
1:55 PM 82.9 °F 85.6 °F 67.3 °F 59% 29.98 in 10.0 mi Calm Calm - N/A   Unknown
2:15 PM 83.1 °F 85.4 °F 66.6 °F 57% 29.97 in 10.0 mi Calm Calm - N/A   Unknown
2:35 PM 83.5 °F 86.2 °F 67.3 °F 58% 29.97 in 10.0 mi Calm Calm - N/A   Unknown
2:55 PM 83.1 °F 86.3 °F 68.2 °F 61% 29.97 in 10.0 mi Calm Calm - N/A   Unknown
3:15 PM 84.0 °F 86.8 °F 67.5 °F 57% 29.96 in 10.0 mi Calm Calm - N/A   Unknown
3:35 PM 85.3 °F 87.9 °F 67.1 °F 54% 29.95 in 10.0 mi Calm Calm - N/A   Unknown
3:55 PM 85.1 °F 87.7 °F 66.7 °F 54% 29.95 in 10.0 mi North 5.8 mph - N/A   Unknown
4:15 PM 85.1 °F 87.7 °F 66.7 °F 54% 29.95 in 10.0 mi Calm Calm - N/A   Unknown
4:35 PM 85.3 °F 87.6 °F 66.6 °F 53% 29.95 in 10.0 mi Calm Calm - N/A   Unknown
4:55 PM 86.2 °F 88.8 °F 66.9 °F 52% 29.95 in 10.0 mi Calm Calm - N/A   Unknown
5:15 PM 86.0 °F 88.5 °F 66.4 °F 52% 29.95 in 10.0 mi North 3.5 mph - N/A   Unknown
5:35 PM 85.6 °F 87.6 °F 65.5 °F 51% 29.95 in 10.0 mi Calm Calm - N/A   Unknown
5:55 PM 86.2 °F 88.2 °F 65.5 °F 50% 29.95 in 10.0 mi Calm Calm - N/A   Unknown
6:15 PM 84.4 °F 86.3 °F 65.5 °F 53% 29.95 in 10.0 mi Calm Calm - N/A   Unknown
6:35 PM 85.1 °F 86.6 °F 64.8 °F 50% 29.95 in 10.0 mi Calm Calm - N/A   Unknown
6:55 PM 85.1 °F 87.1 °F 65.7 °F 52% 29.95 in 10.0 mi Calm Calm - N/A   Unknown
7:15 PM 84.2 °F 86.1 °F 65.3 °F 53% 29.95 in 10.0 mi Calm Calm - N/A   Unknown
7:35 PM 83.3 °F 85.5 °F 66.0 °F 56% 29.96 in 10.0 mi Calm Calm - N/A   Unknown
7:55 PM 82.0 °F 84.3 °F 66.4 °F 59% 29.96 in 10.0 mi Calm Calm - N/A   Unknown
8:15 PM 80.4 °F 82.7 °F 66.7 °F 63% 29.97 in 10.0 mi Calm Calm - N/A   Unknown
8:35 PM 79.7 °F - 67.1 °F 65% 29.97 in 10.0 mi Calm Calm - N/A   Unknown
8:55 PM 79.2 °F - 66.6 °F 65% 29.97 in 10.0 mi Calm Calm - N/A   Unknown
9:15 PM 78.1 °F - 66.9 °F 68% 29.97 in 10.0 mi Calm Calm - N/A   Unknown
9:35 PM 77.4 °F - 66.7 °F 70% 29.97 in 10.0 mi Calm Calm - N/A   Unknown
9:55 PM 76.6 °F - 67.1 °F 72% 29.98 in 10.0 mi Calm Calm - N/A   Unknown
10:15 PM 75.2 °F - 68.0 °F 78% 29.99 in 10.0 mi Calm Calm - N/A   Unknown
10:35 PM 76.1 °F - 67.1 °F 74% 29.99 in 10.0 mi Calm Calm - N/A   Unknown
10:55 PM 75.2 °F - 67.1 °F 76% 29.99 in 10.0 mi Calm Calm - N/A   Unknown
11:15 PM 73.9 °F - 67.6 °F 81% 30.00 in 10.0 mi Calm Calm - N/A   Unknown
11:35 PM 73.4 °F - 68.0 °F 83% 30.00 in 10.0 mi Calm Calm - N/A   Unknown
11:55 PM 72.7 °F - 68.0 °F 85% 30.01 in 10.0 mi Calm Calm - N/A   Unknown